Springfield, MO

3:03 AM CDT on March 30, 2017 (GMT -0500)
Springfield-Branson Regional

Weather History for KSGF - October, 2012

Change the Weather History Date:

Thursday, October 18, 2012

  Actual Average Record
Temperature  
Mean Temperature 50 °F 57 °F  
Max Temperature 60 °F 68 °F 87 °F (2005)
Min Temperature 40 °F 46 °F 25 °F (1948)
Degree Days  
Heating Degree Days 15 8  
Month to date heating degree days 180 116  
Since 1 July heating degree days 221 171  
Cooling Degree Days 0 1  
Month to date cooling degree days 1 24  
Year to date cooling degree days 1744 1383  
Moisture  
Dew Point 30 °F    
Average Humidity 51    
Maximum Humidity 76    
Minimum Humidity 26    
Precipitation  
Precipitation 0.00 in 0.12 in 1.09 in (1938)
Month to date precipitation 3.74 2.06  
Year to date precipitation 28.26 36.78  
Snow  
Snow 0.00 in - - ()
Month to date snowfall 0.0  
Since 1 July snowfall 0.0  
Since 1 September snowfall 0.0  
Snow Depth 0.00 in    
Sea Level Pressure  
Sea Level Pressure 29.73 in    
Wind  
Wind Speed 15 mph (West)    
Max Wind Speed 31 mph    
Max Gust Speed 41 mph    
Visibility 10 miles    
Events      
T = Trace of Precipitation, MM = Missing Value Source: NWS Daily Summary

Daily Weather History Graph

Daily Weather History Graph

Search for Another Location

Airport or City:

Trip Planner

Search our weather history database for the weather conditions in past years. The results will help you decide how hot, cold, wet, or windy it might be!

Date:

Astronomy

Oct. 18, 2012 Rise Set
Actual Time 7:24 AM CDT 6:31 PM CDT
Civil Twilight 6:58 AM CDT 6:58 PM CDT
Nautical Twilight 6:28 AM CDT 7:28 PM CDT
Astronomical Twilight 5:57 AM CDT 7:58 PM CDT
Moon 11:02 AM CDT (10/18) 9:11 PM CDT (10/18)
Length of Visible Light 11h 59m
Length of Day
11h 07m
Waxing Crescent, 14% of the Moon is Illuminated
Oct 18
Waxing Crescent
Oct 21
First Quarter
Oct 29
Full
Nov 6
Last Quarter
Nov 13
New

Hourly Weather History & Observations

Time (CDT) Temp. Windchill Dew Point Humidity Pressure Visibility Wind Dir Wind Speed Gust Speed Precip Events Conditions
12:52 AM 50.0 °F - 35.1 °F 57% 29.70 in 10.0 mi West 6.9 mph - N/A   Clear
1:52 AM 42.1 °F 37.7 °F 36.0 °F 79% 29.73 in 10.0 mi SW 6.9 mph - N/A   Clear
2:52 AM 43.0 °F 38.2 °F 35.1 °F 74% 29.74 in 10.0 mi SW 8.1 mph - N/A   Clear
3:52 AM 46.0 °F 41.4 °F 33.1 °F 61% 29.73 in 10.0 mi WSW 9.2 mph - N/A   Clear
4:52 AM 43.0 °F 38.8 °F 32.0 °F 65% 29.73 in 10.0 mi WSW 6.9 mph - N/A   Clear
5:52 AM 43.0 °F 38.2 °F 30.9 °F 62% 29.75 in 10.0 mi WSW 8.1 mph - N/A   Clear
6:52 AM 46.0 °F 40.6 °F 28.9 °F 51% 29.76 in 10.0 mi West 11.5 mph - N/A   Clear
7:52 AM 45.0 °F 38.9 °F 28.9 °F 53% 29.78 in 10.0 mi West 12.7 mph - N/A   Clear
8:52 AM 46.9 °F - 30.9 °F 54% 29.78 in 10.0 mi West 10.4 mph - N/A   Clear
9:52 AM 51.1 °F - 30.0 °F 44% 29.78 in 10.0 mi West 13.8 mph 25.3 mph N/A   Clear
10:52 AM 53.1 °F - 28.9 °F 40% 29.77 in 10.0 mi West 20.7 mph 28.8 mph N/A   Clear
11:52 AM 55.0 °F - 27.0 °F 34% 29.76 in 10.0 mi WNW 20.7 mph 32.2 mph N/A   Clear
12:52 PM 57.9 °F - 28.9 °F 33% 29.74 in 10.0 mi West 23.0 mph 31.1 mph N/A   Clear
1:52 PM 57.9 °F - 28.0 °F 32% 29.73 in 10.0 mi West 23.0 mph 35.7 mph N/A   Clear
2:52 PM 59.0 °F - 27.0 °F 29% 29.72 in 10.0 mi West 21.9 mph 36.8 mph N/A   Clear
3:52 PM 59.0 °F - 26.1 °F 28% 29.71 in 10.0 mi West 24.2 mph 31.1 mph N/A   Clear
4:52 PM 59.0 °F - 24.1 °F 26% 29.71 in 10.0 mi West 24.2 mph 35.7 mph N/A   Clear
5:52 PM 57.9 °F - 26.1 °F 30% 29.71 in 10.0 mi West 17.3 mph 24.2 mph N/A   Clear
6:52 PM 57.0 °F - 27.0 °F 32% 29.71 in 10.0 mi West 11.5 mph - N/A   Overcast
7:52 PM 55.9 °F - 27.0 °F 33% 29.71 in 10.0 mi West 9.2 mph - N/A   Overcast
8:52 PM 55.9 °F - 28.0 °F 34% 29.71 in 10.0 mi West 11.5 mph - N/A   Overcast
9:52 PM 55.9 °F - 28.9 °F 36% 29.71 in 10.0 mi WNW 17.3 mph 28.8 mph N/A   Overcast
10:52 PM 53.1 °F - 30.0 °F 41% 29.71 in 10.0 mi WNW 9.2 mph 20.7 mph N/A   Overcast
11:52 PM 53.1 °F - 30.9 °F 43% 29.71 in 10.0 mi West 17.3 mph 26.5 mph N/A   Mostly Cloudy